Time,TemperatureF,DewpointF,PressureIn,WindDirection,WindDirectionDegrees,WindSpeedMPH,WindSpeedGustMPH,Humidity,HourlyPrecipIn,Conditions,Clouds,dailyrainin,SoftwareType,DateUTC
2013-02-25 00:01:00,33.0,21.0,30.03,SSE,161,0.0,3.0,62,0.00,,,0.00,,2013-02-25 05:01:00,
2013-02-25 00:11:00,33.0,21.0,30.03,SSE,161,0.0,3.0,62,0.00,,,0.00,,2013-02-25 05:11:00,
2013-02-25 00:22:00,32.0,21.0,30.03,SSE,162,0.0,0.0,64,0.00,,,0.00,,2013-02-25 05:22:00,
2013-02-25 00:32:00,32.0,23.0,30.03,SSE,161,0.0,0.0,69,0.00,,,0.00,,2013-02-25 05:32:00,
2013-02-25 00:42:00,32.0,23.0,30.03,SSE,161,0.0,0.0,69,0.00,,,0.00,,2013-02-25 05:42:00,
2013-02-25 00:52:00,34.0,21.0,30.03,SSE,160,0.0,4.0,59,0.00,,,0.00,,2013-02-25 05:52:00,
2013-02-25 01:02:00,32.0,20.0,30.03,SSE,162,0.0,3.0,61,0.00,,,0.00,,2013-02-25 06:02:00,
2013-02-25 01:11:00,32.0,20.0,30.03,SSE,162,0.0,3.0,61,0.00,,,0.00,,2013-02-25 06:11:00,
2013-02-25 01:21:00,31.0,20.0,30.03,SSE,160,0.0,0.0,64,0.00,,,0.00,,2013-02-25 06:21:00,
2013-02-25 01:32:00,31.0,23.0,30.03,SSE,160,3.0,5.0,71,0.00,,,0.00,,2013-02-25 06:32:00,
2013-02-25 01:42:00,31.0,23.0,30.03,SSE,160,3.0,5.0,71,0.00,,,0.00,,2013-02-25 06:42:00,
2013-02-25 01:51:00,31.0,21.0,30.03,SSE,160,0.0,0.0,67,0.00,,,0.00,,2013-02-25 06:51:00,
2013-02-25 02:01:00,31.0,21.0,30.03,SSE,160,0.0,0.0,66,0.00,,,0.00,,2013-02-25 07:01:00,
2013-02-25 02:11:00,32.0,20.0,30.03,SSE,162,0.0,5.0,62,0.00,,,0.00,,2013-02-25 07:11:00,
2013-02-25 02:21:00,32.0,20.0,30.03,SSE,162,0.0,5.0,62,0.00,,,0.00,,2013-02-25 07:21:00,
2013-02-25 02:32:00,32.0,20.0,30.03,SSE,162,0.0,5.0,62,0.00,,,0.00,,2013-02-25 07:32:00,
2013-02-25 02:42:00,32.0,20.0,30.03,SSE,162,0.0,5.0,62,0.00,,,0.00,,2013-02-25 07:42:00,
2013-02-25 02:52:00,33.0,28.0,30.03,SSE,164,0.0,5.0,81,0.00,,,0.00,,2013-02-25 07:52:00,
2013-02-25 03:01:00,33.0,28.0,30.03,SSW,200,5.0,6.0,82,0.00,,,0.00,,2013-02-25 08:01:00,
2013-02-25 03:11:00,33.0,28.0,30.03,SSW,200,5.0,6.0,82,0.00,,,0.00,,2013-02-25 08:11:00,
2013-02-25 03:21:00,33.0,28.0,30.00,SSW,202,4.0,5.0,82,0.00,,,0.00,,2013-02-25 08:21:00,
2013-02-25 03:32:00,34.0,29.0,30.00,SSW,201,4.0,5.0,82,0.00,,,0.00,,2013-02-25 08:32:00,
2013-02-25 03:42:00,34.0,29.0,30.00,SSW,201,4.0,5.0,82,0.00,,,0.00,,2013-02-25 08:42:00,
2013-02-25 03:52:00,34.0,28.0,30.00,SSW,202,5.0,5.0,79,0.00,,,0.00,,2013-02-25 08:52:00,
2013-02-25 04:01:00,34.0,29.0,30.03,SSW,203,0.0,5.0,81,0.00,,,0.00,,2013-02-25 09:01:00,
2013-02-25 04:12:00,34.0,29.0,30.03,SSW,203,0.0,5.0,81,0.00,,,0.00,,2013-02-25 09:12:00,
2013-02-25 04:21:00,33.0,29.0,30.00,SSW,202,0.0,4.0,85,0.00,,,0.00,,2013-02-25 09:21:00,
2013-02-25 04:32:00,34.0,31.0,30.00,SSW,201,3.0,5.0,87,0.00,,,0.00,,2013-02-25 09:32:00,
2013-02-25 04:42:00,34.0,31.0,30.00,SSW,201,3.0,5.0,87,0.00,,,0.00,,2013-02-25 09:42:00,
2013-02-25 04:52:00,33.0,29.0,30.00,SSW,201,0.0,0.0,85,0.00,,,0.00,,2013-02-25 09:52:00,
2013-02-25 05:01:00,34.0,30.0,30.00,SSW,202,0.0,0.0,86,0.00,,,0.00,,2013-02-25 10:01:00,
2013-02-25 05:11:00,35.0,25.0,30.00,SSW,201,3.0,5.0,67,0.00,,,0.00,,2013-02-25 10:11:00,
2013-02-25 05:21:00,35.0,25.0,30.00,SSW,201,3.0,5.0,67,0.00,,,0.00,,2013-02-25 10:21:00,
2013-02-25 05:32:00,36.0,23.0,30.00,SSW,204,6.0,6.0,58,0.00,,,0.00,,2013-02-25 10:32:00,
2013-02-25 05:42:00,36.0,23.0,30.00,SSW,204,6.0,6.0,58,0.00,,,0.00,,2013-02-25 10:42:00,
2013-02-25 05:52:00,36.0,21.0,30.00,SSW,203,3.0,6.0,55,0.00,,,0.00,,2013-02-25 10:52:00,
2013-02-25 06:01:00,35.0,20.0,30.03,SSW,211,3.0,7.0,54,0.00,,,0.00,,2013-02-25 11:01:00,
2013-02-25 06:11:00,35.0,20.0,30.03,SSW,211,3.0,7.0,54,0.00,,,0.00,,2013-02-25 11:11:00,
2013-02-25 06:22:00,36.0,20.0,30.03,SW,229,4.0,7.0,51,0.00,,,0.00,,2013-02-25 11:22:00,
2013-02-25 06:32:00,38.0,19.0,30.03,SW,234,0.0,7.0,46,0.00,,,0.00,,2013-02-25 11:32:00,
2013-02-25 06:42:00,38.0,19.0,30.03,SW,234,0.0,7.0,46,0.00,,,0.00,,2013-02-25 11:42:00,
2013-02-25 06:52:00,39.0,19.0,30.03,SW,228,3.0,9.0,45,0.00,,,0.00,,2013-02-25 11:52:00,
2013-02-25 07:02:00,39.0,19.0,30.03,SW,221,5.0,10.0,45,0.00,,,0.00,,2013-02-25 12:02:00,
2013-02-25 07:11:00,39.0,19.0,30.03,SW,221,5.0,10.0,45,0.00,,,0.00,,2013-02-25 12:11:00,
2013-02-25 07:22:00,39.0,19.0,30.03,WSW,255,5.0,9.0,45,0.00,,,0.00,,2013-02-25 12:22:00,
2013-02-25 07:32:00,38.0,19.0,30.03,WSW,256,5.0,6.0,45,0.00,,,0.00,,2013-02-25 12:32:00,
2013-02-25 07:42:00,38.0,19.0,30.03,WSW,256,5.0,6.0,45,0.00,,,0.00,,2013-02-25 12:42:00,
2013-02-25 07:56:00,38.0,19.0,30.03,SSW,212,0.0,7.0,46,0.00,,,0.00,,2013-02-25 12:56:00,
2013-02-25 08:02:00,37.0,18.0,30.03,SSW,210,5.0,5.0,46,0.00,,,0.00,,2013-02-25 13:02:00,
2013-02-25 08:12:00,37.0,18.0,30.03,SSW,210,5.0,5.0,46,0.00,,,0.00,,2013-02-25 13:12:00,
2013-02-25 08:23:00,38.0,19.0,30.03,SSW,209,4.0,5.0,46,0.00,,,0.00,,2013-02-25 13:23:00,
2013-02-25 08:32:00,39.0,19.0,30.03,SSW,211,4.0,6.0,45,0.00,,,0.00,,2013-02-25 13:32:00,
2013-02-25 08:42:00,39.0,19.0,30.03,SSW,211,4.0,6.0,45,0.00,,,0.00,,2013-02-25 13:42:00,
2013-02-25 08:52:00,40.0,20.0,30.03,WSW,240,4.0,7.0,45,0.00,,,0.00,,2013-02-25 13:52:00,
2013-02-25 09:03:00,40.0,20.0,30.03,WSW,239,5.0,7.0,45,0.00,,,0.00,,2013-02-25 14:03:00,
2013-02-25 09:17:00,40.0,20.0,30.03,WSW,239,5.0,7.0,45,0.00,,,0.00,,2013-02-25 14:17:00,
2013-02-25 09:32:00,42.0,22.0,30.03,SW,219,4.0,7.0,44,0.00,,,0.00,,2013-02-25 14:32:00,
2013-02-25 09:42:00,42.0,22.0,30.03,SW,219,4.0,7.0,44,0.00,,,0.00,,2013-02-25 14:42:00,
2013-02-25 09:52:00,42.0,20.0,30.03,WSW,252,4.0,6.0,41,0.00,,,0.00,,2013-02-25 14:52:00,
2013-02-25 10:03:00,43.0,21.0,30.03,WSW,237,4.0,7.0,41,0.00,,,0.00,,2013-02-25 15:03:00,
2013-02-25 10:11:00,43.0,21.0,30.03,WSW,237,4.0,7.0,41,0.00,,,0.00,,2013-02-25 15:11:00,
2013-02-25 10:22:00,45.0,22.0,30.03,SW,228,4.0,7.0,39,0.00,,,0.00,,2013-02-25 15:22:00,
2013-02-25 10:32:00,45.0,22.0,30.03,WSW,245,5.0,11.0,39,0.00,,,0.00,,2013-02-25 15:32:00,
2013-02-25 10:42:00,45.0,22.0,30.03,WSW,245,5.0,11.0,39,0.00,,,0.00,,2013-02-25 15:42:00,
2013-02-25 10:52:00,47.0,22.0,30.03,SW,218,0.0,6.0,37,0.00,,,0.00,,2013-02-25 15:52:00,
2013-02-25 11:02:00,47.0,22.0,30.03,WSW,246,6.0,8.0,37,0.00,,,0.00,,2013-02-25 16:02:00,
2013-02-25 11:22:00,48.0,22.0,30.03,SW,220,4.0,10.0,36,0.00,,,0.00,,2013-02-25 16:22:00,
2013-02-25 11:32:00,48.0,22.0,30.03,SW,219,5.0,9.0,36,0.00,,,0.00,,2013-02-25 16:32:00,
2013-02-25 11:42:00,48.0,22.0,30.03,SW,219,5.0,9.0,36,0.00,,,0.00,,2013-02-25 16:42:00,
2013-02-25 11:52:00,49.0,23.0,30.03,South,184,6.0,7.0,35,0.00,,,0.00,,2013-02-25 16:52:00,
2013-02-25 12:01:00,51.0,23.0,30.03,West,261,5.0,8.0,33,0.00,,,0.00,,2013-02-25 17:01:00,
2013-02-25 12:21:00,50.0,22.0,30.03,SW,227,4.0,11.0,33,0.00,,,0.00,,2013-02-25 17:21:00,
2013-02-25 12:32:00,52.0,24.0,30.03,WSW,253,4.0,9.0,33,0.00,,,0.00,,2013-02-25 17:32:00,
2013-02-25 12:52:00,51.0,23.0,30.00,SW,232,5.0,9.0,33,0.00,,,0.00,,2013-02-25 17:52:00,
2013-02-25 13:02:00,51.0,23.0,30.00,SW,232,5.0,9.0,33,0.00,,,0.00,,2013-02-25 18:02:00,
2013-02-25 13:12:00,51.0,23.0,30.00,SW,232,5.0,9.0,33,0.00,,,0.00,,2013-02-25 18:12:00,
2013-02-25 13:21:00,53.0,25.0,29.97,South,179,6.0,11.0,33,0.00,,,0.00,,2013-02-25 18:21:00,
2013-02-25 13:32:00,53.0,25.0,30.00,WSW,258,0.0,9.0,33,0.00,,,0.00,,2013-02-25 18:32:00,
2013-02-25 13:42:00,53.0,25.0,30.00,WSW,258,0.0,9.0,33,0.00,,,0.00,,2013-02-25 18:42:00,
2013-02-25 13:52:00,54.0,26.0,30.00,SW,225,5.0,8.0,33,0.00,,,0.00,,2013-02-25 18:52:00,
2013-02-25 14:01:00,55.0,26.0,29.97,SSW,210,5.0,11.0,32,0.00,,,0.00,,2013-02-25 19:01:00,
2013-02-25 14:11:00,55.0,26.0,29.97,SSW,210,5.0,11.0,32,0.00,,,0.00,,2013-02-25 19:11:00,
2013-02-25 14:21:00,57.0,27.0,29.97,West,260,5.0,9.0,32,0.00,,,0.00,,2013-02-25 19:21:00,
2013-02-25 14:32:00,58.0,28.0,29.97,SSW,195,6.0,10.0,31,0.00,,,0.00,,2013-02-25 19:32:00,
2013-02-25 14:42:00,58.0,28.0,29.97,SSW,195,6.0,10.0,31,0.00,,,0.00,,2013-02-25 19:42:00,
2013-02-25 14:52:00,59.0,28.0,29.94,WSW,237,0.0,11.0,31,0.00,,,0.00,,2013-02-25 19:52:00,
2013-02-25 15:01:00,60.0,29.0,29.94,SW,218,7.0,10.0,31,0.00,,,0.00,,2013-02-25 20:01:00,
2013-02-25 15:32:00,60.0,28.0,29.94,SW,235,3.0,9.0,30,0.00,,,0.00,,2013-02-25 20:32:00,
2013-02-25 15:42:00,60.0,28.0,29.94,SW,235,3.0,9.0,30,0.00,,,0.00,,2013-02-25 20:42:00,
2013-02-25 15:52:00,60.0,28.0,29.94,SW,235,3.0,9.0,30,0.00,,,0.00,,2013-02-25 20:52:00,
2013-02-25 16:02:00,61.0,29.0,29.94,West,265,7.0,8.0,30,0.00,,,0.00,,2013-02-25 21:02:00,
2013-02-25 16:11:00,61.0,29.0,29.94,West,265,7.0,8.0,30,0.00,,,0.00,,2013-02-25 21:11:00,
2013-02-25 16:22:00,61.0,29.0,29.91,SW,225,5.0,11.0,30,0.00,,,0.00,,2013-02-25 21:22:00,
2013-02-25 16:32:00,62.0,30.0,29.91,SSW,208,5.0,9.0,30,0.00,,,0.00,,2013-02-25 21:32:00,
2013-02-25 16:42:00,62.0,30.0,29.91,SSW,208,5.0,9.0,30,0.00,,,0.00,,2013-02-25 21:42:00,
2013-02-25 16:52:00,62.0,29.0,29.91,SSW,212,7.0,11.0,29,0.00,,,0.00,,2013-02-25 21:52:00,
2013-02-25 17:01:00,62.0,29.0,29.91,SSW,205,6.0,9.0,29,0.00,,,0.00,,2013-02-25 22:01:00,
2013-02-25 17:11:00,62.0,29.0,29.91,SSW,205,6.0,9.0,29,0.00,,,0.00,,2013-02-25 22:11:00,
2013-02-25 17:21:00,62.0,29.0,29.91,SW,235,8.0,11.0,29,0.00,,,0.00,,2013-02-25 22:21:00,
2013-02-25 17:32:00,61.0,29.0,29.91,SW,223,5.0,9.0,30,0.00,,,0.00,,2013-02-25 22:32:00,
2013-02-25 17:42:00,61.0,29.0,29.91,SW,223,5.0,9.0,30,0.00,,,0.00,,2013-02-25 22:42:00,
2013-02-25 17:52:00,60.0,28.0,29.88,SSW,209,5.0,9.0,30,0.00,,,0.00,,2013-02-25 22:52:00,
2013-02-25 18:01:00,60.0,28.0,29.88,South,188,6.0,7.0,30,0.00,,,0.00,,2013-02-25 23:01:00,
2013-02-25 18:11:00,60.0,28.0,29.88,South,188,6.0,7.0,30,0.00,,,0.00,,2013-02-25 23:11:00,
2013-02-25 18:22:00,59.0,28.0,29.88,SSW,212,5.0,8.0,31,0.00,,,0.00,,2013-02-25 23:22:00,
2013-02-25 18:32:00,59.0,28.0,29.88,SW,214,6.0,6.0,31,0.00,,,0.00,,2013-02-25 23:32:00,
2013-02-25 18:42:00,59.0,28.0,29.88,SW,214,6.0,6.0,31,0.00,,,0.00,,2013-02-25 23:42:00,
2013-02-25 18:52:00,58.0,27.0,29.85,SW,228,5.0,8.0,30,0.00,,,0.00,,2013-02-25 23:52:00,
2013-02-25 19:01:00,58.0,28.0,29.88,SW,229,6.0,7.0,31,0.00,,,0.00,,2013-02-26 00:01:00,
2013-02-25 19:12:00,58.0,28.0,29.88,SW,229,6.0,7.0,31,0.00,,,0.00,,2013-02-26 00:12:00,
2013-02-25 19:22:00,58.0,28.0,29.85,SW,217,5.0,9.0,31,0.00,,,0.00,,2013-02-26 00:22:00,
2013-02-25 19:32:00,57.0,27.0,29.85,SW,227,3.0,8.0,31,0.00,,,0.00,,2013-02-26 00:32:00,
2013-02-25 19:42:00,57.0,27.0,29.85,SW,227,3.0,8.0,31,0.00,,,0.00,,2013-02-26 00:42:00,
2013-02-25 19:52:00,56.0,26.0,29.85,SSW,208,6.0,10.0,31,0.00,,,0.00,,2013-02-26 00:52:00,
2013-02-25 20:02:00,56.0,26.0,29.85,SSW,208,6.0,10.0,31,0.00,,,0.00,,2013-02-26 01:02:00,
2013-02-25 20:11:00,56.0,26.0,29.85,SSW,208,6.0,10.0,31,0.00,,,0.00,,2013-02-26 01:11:00,
2013-02-25 20:21:00,55.0,26.0,29.85,SW,215,6.0,9.0,32,0.00,,,0.00,,2013-02-26 01:21:00,
2013-02-25 20:32:00,54.0,25.0,29.85,SW,216,6.0,10.0,32,0.00,,,0.00,,2013-02-26 01:32:00,
2013-02-25 20:42:00,54.0,25.0,29.85,SW,216,6.0,10.0,32,0.00,,,0.00,,2013-02-26 01:42:00,
2013-02-25 20:52:00,53.0,25.0,29.85,SSW,197,4.0,8.0,33,0.00,,,0.00,,2013-02-26 01:52:00,
2013-02-25 21:01:00,53.0,25.0,29.85,SSW,197,4.0,8.0,33,0.00,,,0.00,,2013-02-26 02:01:00,
2013-02-25 21:11:00,53.0,25.0,29.85,SSW,197,4.0,8.0,33,0.00,,,0.00,,2013-02-26 02:11:00,
2013-02-25 21:21:00,53.0,26.0,29.85,SSW,207,4.0,10.0,35,0.00,,,0.00,,2013-02-26 02:21:00,
2013-02-25 21:32:00,53.0,26.0,29.85,WSW,252,7.0,9.0,35,0.00,,,0.00,,2013-02-26 02:32:00,
2013-02-25 21:42:00,53.0,26.0,29.85,WSW,252,7.0,9.0,35,0.00,,,0.00,,2013-02-26 02:42:00,
2013-02-25 21:52:00,54.0,27.0,29.85,WSW,242,7.0,10.0,35,0.00,,,0.00,,2013-02-26 02:52:00,
2013-02-25 22:02:00,54.0,27.0,29.85,SW,235,5.0,10.0,35,0.00,,,0.00,,2013-02-26 03:02:00,
2013-02-25 22:11:00,54.0,27.0,29.85,SW,235,5.0,10.0,35,0.00,,,0.00,,2013-02-26 03:11:00,
2013-02-25 22:22:00,54.0,28.0,29.85,SSW,210,7.0,11.0,36,0.00,,,0.00,,2013-02-26 03:22:00,
2013-02-25 22:32:00,54.0,28.0,29.85,West,259,7.0,12.0,37,0.00,,,0.00,,2013-02-26 03:32:00,
2013-02-25 22:42:00,54.0,28.0,29.85,West,259,7.0,12.0,37,0.00,,,0.00,,2013-02-26 03:42:00,
2013-02-25 22:52:00,54.0,29.0,29.82,SW,217,5.0,10.0,38,0.00,,,0.00,,2013-02-26 03:52:00,
2013-02-25 23:01:00,54.0,30.0,29.82,SW,234,5.0,10.0,39,0.00,,,0.00,,2013-02-26 04:01:00,
2013-02-25 23:11:00,54.0,30.0,29.82,SW,234,5.0,10.0,39,0.00,,,0.00,,2013-02-26 04:11:00,
2013-02-25 23:22:00,54.0,30.0,29.82,SW,227,5.0,11.0,40,0.00,,,0.00,,2013-02-26 04:22:00,
2013-02-25 23:32:00,55.0,31.0,29.82,WSW,244,5.0,10.0,40,0.00,,,0.00,,2013-02-26 04:32:00,
2013-02-25 23:42:00,55.0,31.0,29.82,WSW,244,5.0,10.0,40,0.00,,,0.00,,2013-02-26 04:42:00,
2013-02-25 23:52:00,54.0,31.0,29.82,SW,219,4.0,9.0,41,0.00,,,0.00,,2013-02-26 04:52:00,